Location: Meanaryar
(48.4161°N, 4.7315°W)
Time: 09:35:14
(UTC+00:00)

Cosmos 1092 Rocket - Pass Details

Date: 25 January 2021
Orbit: 954 x 995 km, 83.0° (Epoch: 02 March)

Event Time Altitude Azimuth Distance (km) Brightness Sun altitude
Rises 18:57:23 0° 191° (S) 3,646 7.3 -18.2°
Reaches altitude 10° 18:59:53 10° 193° (SSW) 2,698 6.6 -18.6°
Maximum altitude 19:06:04 79° 280° (W) 984 4.1 -19.6°
Drops below altitude 10° 19:12:15 10° 7° (N) 2,697 6.2 -20.6°
Sets 19:14:45 0° 9° (N) 3,646 6.9 -21.0°
